"Pseudo-MPEC" for P10UJHd

Created 2019 Dec 10 19:07:10 UT using Find_Orb

Click here for an explanation of pseudo-MPECs

 
 Astrometry: 
     P10UJHd  C2019 11 26qJU*ZmB7\j./BFI?pP)!Vhu4$/%*0Astrometry$V53`oZ\`Hn)uF51
     P10UJHd  C2019 11 26oyLR\@uKx^P]o.m*A-Si9rIbredacted;xK0'FYL1[c+click04^F51
     P10UJHd  C2019 11 26odAherer49AU;dHh30f8un8TNef/(qfor@UiPexplanation-xckF51

Station data:
(F51) Pan-STARRS 1, Haleakala  (N20.707235 W156.255910)  US/Hawaii.
   Observers N. Primak, A. Schultz, S. Watters, J. Thiel, T. Goggia. Measurer
   PS1 Science Consortium. 1.8-m Ritchey-Chrétien + CCD.

Orbital elements:  P10UJHd
   Perihelion 2019 Oct 30.118489 +/- 52.6 TT =  2:50:37 (JD 2458786.618489)
Epoch 2019 Nov 26.0 TT = JDT 2458813.5   Earth MOID: 0.0873   AutoNEOCP
M  23.29772671 +/- 32               (J2000 ecliptic)
n   0.86668220 +/- 0.423            Peri.  335.78950 +/- 70
a   1.08950559 +/- 0.354            Node    63.56116 +/- 0.13
e   0.0150999 +/- 0.282             Incl.   17.73510 +/- 16
P   1.14/415.37d           H 26.4   G  0.15   U 12.2  SR
q 1.07305412 +/- 0.218    Q 1.10595705 +/- 25.8
From 3 observations 2019 Nov. 26 (52.7 min); mean residual 0".16
Residuals in arcseconds: 
191126 F51  .06+  .08-    191126 F51  .19-  .24+    191126 F51  .13+  .16-    

Ephemerides (geocentric):
Date (UTC) HH   RA              Dec         delta   r     elong  mag " sig PA
---- -- -- --  -------------   -----------  ------ ------ -----  --- ---- ---
2019 12 10 19  02 21 43.782   +53 33 17.53  .12224 1.0763 136.2 23.5  37d 159
2019 12 10 20  02 21 25.032   +53 36 14.33  .12240 1.0763 136.1 23.6  37d 159
2019 12 10 21  02 21 06.302   +53 39 10.42  .12257 1.0763 136.0 23.6  37d 159
2019 12 10 22  02 20 47.594   +53 42 05.79  .12273 1.0763 135.9 23.6  37d 159
2019 12 10 23  02 20 28.906   +53 45 00.45  .12289 1.0763 135.9 23.6  37d 159
2019 12 11 00  02 20 10.239   +53 47 54.40  .12306 1.0763 135.8 23.6  37d 159
2019 12 11 01  02 19 51.593   +53 50 47.64  .12322 1.0763 135.7 23.6  37d 159
2019 12 11 02  02 19 32.968   +53 53 40.17  .12339 1.0763 135.6 23.6  37d 159
2019 12 11 03  02 19 14.365   +53 56 32.01  .12355 1.0763 135.5 23.6  37d 159
2019 12 11 04  02 18 55.784   +53 59 23.14  .12372 1.0763 135.4 23.6  37d 159
2019 12 11 05  02 18 37.224   +54 02 13.57  .12388 1.0764 135.4 23.6  37d 159
2019 12 11 06  02 18 18.685   +54 05 03.31  .12405 1.0764 135.3 23.6  37d 158
2019 12 11 07  02 18 00.169   +54 07 52.36  .12421 1.0764 135.2 23.6  37d 158
2019 12 11 08  02 17 41.674   +54 10 40.72  .12438 1.0764 135.1 23.6  37d 158
2019 12 11 09  02 17 23.202   +54 13 28.39  .12454 1.0764 135.0 23.6  37d 158
2019 12 11 10  02 17 04.751   +54 16 15.38  .12471 1.0764 135.0 23.6  37d 158
2019 12 11 11  02 16 46.323   +54 19 01.68  .12487 1.0764 134.9 23.6  37d 158
2019 12 11 12  02 16 27.917   +54 21 47.31  .12504 1.0764 134.8 23.6  37d 158
2019 12 11 13  02 16 09.534   +54 24 32.26  .12521 1.0764 134.7 23.6  37d 158
2019 12 11 14  02 15 51.173   +54 27 16.53  .12537 1.0764 134.6 23.6  37d 158
2019 12 11 15  02 15 32.835   +54 30 00.14  .12554 1.0764 134.5 23.6  37d 158
2019 12 11 16  02 15 14.520   +54 32 43.07  .12571 1.0764 134.5 23.6  37d 158
2019 12 11 17  02 14 56.228   +54 35 25.34  .12587 1.0764 134.4 23.7  37d 158
2019 12 11 18  02 14 37.958   +54 38 06.94  .12604 1.0764 134.3 23.7  37d 158
2019 12 11 19  02 14 19.712   +54 40 47.89  .12621 1.0764 134.2 23.7  37d 158
2019 12 11 20  02 14 01.489   +54 43 28.17  .12638 1.0764 134.1 23.7  37d 158
2019 12 11 21  02 13 43.290   +54 46 07.80  .12655 1.0765 134.1 23.7  37d 158
2019 12 11 22  02 13 25.113   +54 48 46.77  .12671 1.0765 134.0 23.7  37d 158
2019 12 11 23  02 13 06.960   +54 51 25.10  .12688 1.0765 133.9 23.7  37d 158
2019 12 12 00  02 12 48.831   +54 54 02.77  .12705 1.0765 133.8 23.7  37d 158
2019 12 12 01  02 12 30.726   +54 56 39.80  .12722 1.0765 133.7 23.7  37d 158
2019 12 12 02  02 12 12.644   +54 59 16.18  .12739 1.0765 133.7 23.7  37d 158
2019 12 12 03  02 11 54.586   +55 01 51.93  .12756 1.0765 133.6 23.7  37d 158
2019 12 12 04  02 11 36.553   +55 04 27.03  .12773 1.0765 133.5 23.7  37d 157
2019 12 12 05  02 11 18.543   +55 07 01.50  .12790 1.0765 133.4 23.7  37d 157
2019 12 12 06  02 11 00.557   +55 09 35.34  .12806 1.0765 133.4 23.7  37d 157
2019 12 12 07  02 10 42.596   +55 12 08.54  .12823 1.0765 133.3 23.7  36d 157
2019 12 12 08  02 10 24.660   +55 14 41.12  .12840 1.0765 133.2 23.7  36d 157
2019 12 12 09  02 10 06.747   +55 17 13.07  .12857 1.0765 133.1 23.7  36d 157
2019 12 12 10  02 09 48.859   +55 19 44.40  .12874 1.0765 133.0 23.7  36d 157
2019 12 12 11  02 09 30.996   +55 22 15.10  .12891 1.0765 133.0 23.7  36d 157
2019 12 12 12  02 09 13.158   +55 24 45.19  .12909 1.0766 132.9 23.7  36d 157
2019 12 12 13  02 08 55.345   +55 27 14.66  .12926 1.0766 132.8 23.7  36d 157
2019 12 12 14  02 08 37.556   +55 29 43.52  .12943 1.0766 132.7 23.8  36d 157
2019 12 12 15  02 08 19.793   +55 32 11.77  .12960 1.0766 132.7 23.8  36d 157
2019 12 12 16  02 08 02.054   +55 34 39.41  .12977 1.0766 132.6 23.8  36d 157
2019 12 12 17  02 07 44.341   +55 37 06.44  .12994 1.0766 132.5 23.8  36d 157
2019 12 12 18  02 07 26.653   +55 39 32.87  .13011 1.0766 132.4 23.8  36d 157